Tracking 19709 objects as of 17-Jun-2019
HD Live streaming from Space Station
objects crossing your sky now

DELTA 1 DEB

Track DELTA 1 DEB now!
10-day predictions


NORAD ID: 37644
Int'l Code: 1978-026JF
Perigee: 793.8 km
Apogee: 880.3 km
Inclination: 98.9 °
Period: 101.5 minutes
Semi major axis: 7208 km
RCS: 0.0134 m2 (small)
Launch date: March 5, 1978
Source: United States (US)
Launch site: AIR FORCE WESTERN TEST RANGE (AFWTR)

Note: This is SATELLITE DEBRIS
aabbcc
Your satellite tracking list
Your tracking list is empty




NASA's NSSDC Master Catalog

Two Line Element Set (TLE):
1 37644U 78026JF  19166.85327809  .00000409  00000-0  21459-3 0  9999
2 37644  98.8599  47.8603 0060022  87.9239 272.8808 14.18660580838474
Source of the keplerian elements: AFSPC